User: anonymous   Login
Location: Caltech
(34.1382°N, 118.1253°W)
Time: 14:10:50
(UTC-07:00)
Language:

Cosmos 1975 - Orbit

View from above orbital plane
View from above orbital plane
View from above satellite
View from above satellite

Ground track
Ground track

The orbit data is extracted from the following two-line orbital elements,

1 19573U 88093A   18173.49994093  .00000754  00000-0  51670-4 0  9999
2 19573  82.5196 347.1120 0015616 114.9516 245.3335 15.04489650615483
Epoch (UTC): 22 June 2018 11:59:54
Eccentricity: 0.0015616
inclination: 82.5196°
perigee height: 542 km
apogee height: 564 km
right ascension of ascending node: 347.1120°
argument of perigee: 114.9516°
revolutions per day: 15.04489650
mean anomaly at epoch: 245.3335°
orbit number at epoch: 61548

The dashed part of the orbit path shows where the satellite is in the earth's shadow,  

DLR